Home   Weather   Baltimore   Past weeks

Flag for USA Past Weather in Baltimore, Maryland, USA — Yesterday and Last 2 Weeks

Now
65 °F

Fog.


Feels Like: 65 °F
Forecast: 58 / 74 °F
Wind: No wind

Location: Baltimore-Washington International Airport

Current Time: Sep 27, 2016 at 6:31:24 AM

Latest Report: Sep 27, 2016 at 5:54 AM


Visibility: 6 mi

Pressure: 29.93 "Hg

Humidity: 94%

Dew Point: 63 °F

Location of BaltimoreLocation

Past Weather in Baltimore — Graph

°F

Baltimore Temperature Yesterday

Maximum temperature yesterday: 68 °F (at 4:54 PM)
Minimum temperature yesterday: 52 °F (at 12:54 AM)
Average temperature yesterday: 62 °F

High & Low Weather Summary for the Past Weeks

 TemperatureHumidityPressure
High93 °F (Sep 14, 3:54 PM)97% (Sep 24, 10:54 PM)30.30 "Hg (Sep 24, 10:54 PM)
Low51 °F (Sep 25, 4:54 AM)26% (Sep 14, 2:54 PM)29.93 "Hg (Sep 27, 3:54 AM)
Average71 °F70%30.11 "Hg
* Reported Sep 12 4:54 AM — Sep 27 4:54 AM, Baltimore, Weather by CustomWeather, © 2016

Note: Actual official high and low records may vary slightly from our data, if they occured in-between our weather recording intervals... More about our weather records

Advertising

Baltimore Weather History for the Previous 24 Hours

Scroll right to see more
 ConditionsComfort  
Time TempWeatherWind HumidityBarometerVisibility
4:54 AM
Tue, Sep 27
65 °FFog.3 mph97%29.94 "Hg5 mi
3:54 AM65 °FLight rain. Fog.5 mph97%29.93 "Hg6 mi
2:54 AM64 °FLight rain. Fog.3 mph97%29.94 "Hg6 mi
1:54 AM64 °FMostly cloudy.No wind90%29.94 "Hg10 mi
12:54 AM64 °FMostly cloudy.No wind90%29.95 "Hg10 mi
11:54 PM
Mon, Sep 26
64 °FOvercast.No wind87%29.97 "Hg10 mi
10:54 PM64 °FMostly cloudy.No wind87%29.98 "Hg10 mi
9:54 PM65 °FPassing clouds.7 mph81%29.98 "Hg10 mi
8:54 PM68 °FOvercast.5 mph68%30.02 "Hg10 mi
7:54 PM68 °FOvercast.8 mph65%30.02 "Hg10 mi
6:54 PM67 °FOvercast.3 mph68%30.03 "Hg10 mi
5:54 PM68 °FOvercast.6 mph65%30.02 "Hg10 mi
4:54 PM68 °FOvercast.7 mph68%30.02 "Hg10 mi
3:54 PM67 °FOvercast.6 mph73%30.04 "Hg10 mi
2:54 PM65 °FMostly cloudy.6 mph85%30.07 "Hg9 mi
1:54 PM65 °FLight rain. More clouds than sun.6 mph85%30.10 "Hg6 mi
12:54 PM67 °FMostly cloudy.9 mph76%30.11 "Hg10 mi
11:54 AM67 °FDrizzle. Mostly cloudy.7 mph79%30.13 "Hg10 mi
10:54 AM67 °FDrizzle. More clouds than sun.7 mph79%30.14 "Hg9 mi
9:54 AM66 °FOvercast.7 mph75%30.13 "Hg10 mi
8:54 AM63 °FOvercast.5 mph84%30.14 "Hg10 mi
7:54 AM61 °FPartly sunny.3 mph81%30.13 "Hg10 mi
6:54 AM57 °FMostly cloudy.No wind87%30.14 "Hg10 mi
Weather by CustomWeather, © 2016

See weather overviewHow to use our weather pages